| time (UTC) | temp F | wind direction | speed MPH | gust MPH | rain 1hr in | rain 24hr in | rain mn in | humidity % | barometer mb |
| 20260504220726 | 79 | 252 | 6.0 | 20.0 | 0.00 | 0.00 | 0.00 | 40 | 1008.2 |
| 20260504220224 | 79 | 235 | 13.0 | 17.0 | 0.00 | 0.00 | 0.00 | 40 | 1008.2 |
| 20260504215721 | 79 | 264 | 14.0 | 19.0 | 0.00 | 0.00 | 0.00 | 39 | 1008.0 |
| 20260504215218 | 80 | 235 | 14.0 | 18.0 | 0.00 | 0.00 | 0.00 | 40 | 1008.2 |
| 20260504214713 | 79 | 247 | 16.0 | 20.0 | 0.00 | 0.00 | 0.00 | 40 | 1008.2 |
| 20260504214210 | 80 | 230 | 10.0 | 22.0 | 0.00 | 0.00 | 0.00 | 40 | 1008.3 |
| 20260504213707 | 79 | 264 | 5.0 | 17.0 | 0.00 | 0.00 | 0.00 | 40 | 1008.1 |
| 20260504213203 | 79 | 245 | 10.0 | 20.0 | 0.00 | 0.00 | 0.00 | 40 | 1008.2 |
| 20260504212700 | 80 | 242 | 24.0 | 25.0 | 0.00 | 0.00 | 0.00 | 39 | 1008.1 |
| 20260504212157 | 80 | 255 | 8.0 | 17.0 | 0.00 | 0.00 | 0.00 | 38 | 1008.0 |
| 20260504211654 | 79 | 258 | 9.0 | 20.0 | 0.00 | 0.00 | 0.00 | 39 | 1008.1 |
| 20260504211150 | 80 | 234 | 13.0 | 19.0 | 0.00 | 0.00 | 0.00 | 38 | 1008.2 |
| 20260504210648 | 81 | 245 | 9.0 | 18.0 | 0.00 | 0.00 | 0.00 | 38 | 1008.3 |
| 20260504210144 | 80 | 253 | 9.0 | 21.0 | 0.00 | 0.00 | 0.00 | 36 | 1008.2 |
| 20260504205642 | 79 | 268 | 8.0 | 22.0 | 0.00 | 0.00 | 0.00 | 38 | 1008.3 |
| 20260504205139 | 80 | 267 | 5.0 | 22.0 | 0.00 | 0.00 | 0.00 | 36 | 1008.4 |
| 20260504204637 | 80 | 232 | 6.0 | 23.0 | 0.00 | 0.00 | 0.00 | 37 | 1008.3 |
| 20260504204136 | 80 | 247 | 14.0 | 24.0 | 0.00 | 0.00 | 0.00 | 36 | 1008.4 |
| 20260504203634 | 80 | 255 | 11.0 | 29.0 | 0.00 | 0.00 | 0.00 | 36 | 1008.5 |
| 20260504203132 | 79 | 273 | 14.0 | 18.0 | 0.00 | 0.00 | 0.00 | 37 | 1008.3 |
| 20260504202632 | 80 | 244 | 15.0 | 24.0 | 0.00 | 0.00 | 0.00 | 37 | 1008.6 |
| 20260504202129 | 80 | 255 | 10.0 | 17.0 | 0.00 | 0.00 | 0.00 | 37 | 1008.7 |
| 20260504201625 | 80 | 260 | 19.0 | 27.0 | 0.00 | 0.00 | 0.00 | 37 | 1008.7 |
| 20260504201124 | 80 | 255 | 7.0 | 18.0 | 0.00 | 0.00 | 0.00 | 37 | 1008.9 |
| 20260504200620 | 79 | 235 | 14.0 | 28.0 | 0.00 | 0.00 | 0.00 | 38 | 1009.1 |
| 20260504200117 | 80 | 233 | 13.0 | 25.0 | 0.00 | 0.00 | 0.00 | 37 | 1008.8 |
| 20260504195613 | 79 | 242 | 9.0 | 22.0 | 0.00 | 0.00 | 0.00 | 39 | 1008.9 |
| 20260504195109 | 79 | 235 | 17.0 | 22.0 | 0.00 | 0.00 | 0.00 | 37 | 1008.9 |
| 20260504194606 | 79 | 238 | 21.0 | 35.0 | 0.00 | 0.00 | 0.00 | 37 | 1009.0 |
| 20260504194101 | 79 | 256 | 13.0 | 33.0 | 0.00 | 0.00 | 0.00 | 38 | 1009.0 |
| 20260504193558 | 80 | 250 | 8.0 | 32.0 | 0.00 | 0.00 | 0.00 | 37 | 1009.2 |
| 20260504193057 | 80 | 233 | 9.0 | 21.0 | 0.00 | 0.00 | 0.00 | 38 | 1009.2 |
| 20260504192555 | 79 | 240 | 15.0 | 24.0 | 0.00 | 0.00 | 0.00 | 37 | 1009.2 |
| 20260504192052 | 79 | 254 | 11.0 | 22.0 | 0.00 | 0.00 | 0.00 | 38 | 1009.1 |
| 20260504191550 | 80 | 276 | 9.0 | 18.0 | 0.00 | 0.00 | 0.00 | 37 | 1009.2 |
| 20260504191046 | 79 | 246 | 9.0 | 22.0 | 0.00 | 0.00 | 0.00 | 36 | 1009.2 |
| 20260504190543 | 79 | 229 | 9.0 | 24.0 | 0.00 | 0.00 | 0.00 | 38 | 1009.2 |
| 20260504190039 | 79 | 244 | 28.0 | 34.0 | 0.00 | 0.00 | 0.00 | 36 | 1009.4 |
| 20260504185536 | 78 | 224 | 11.0 | 23.0 | 0.00 | 0.00 | 0.00 | 38 | 1009.6 |
| 20260504185032 | 79 | 253 | 16.0 | 24.0 | 0.00 | 0.00 | 0.00 | 39 | 1009.6 |
| 20260504184528 | 79 | 244 | 13.0 | 30.0 | 0.00 | 0.00 | 0.00 | 37 | 1009.5 |
| 20260504184023 | 79 | 229 | 10.0 | 26.0 | 0.00 | 0.00 | 0.00 | 38 | 1009.6 |
| 20260504183521 | 79 | 274 | 15.0 | 21.0 | 0.00 | 0.00 | 0.00 | 38 | 1009.6 |
| 20260504183019 | 79 | 265 | 21.0 | 23.0 | 0.00 | 0.00 | 0.00 | 38 | 1009.8 |
| 20260504182515 | 79 | 231 | 17.0 | 21.0 | 0.00 | 0.00 | 0.00 | 38 | 1009.8 |
| 20260504182013 | 79 | 241 | 13.0 | 32.0 | 0.00 | 0.00 | 0.00 | 39 | 1010.0 |
| 20260504181510 | 79 | 237 | 10.0 | 23.0 | 0.00 | 0.00 | 0.00 | 36 | 1009.9 |
| 20260504181008 | 79 | 220 | 15.0 | 19.0 | 0.00 | 0.00 | 0.00 | 36 | 1010.0 |
| 20260504180507 | 78 | 237 | 12.0 | 21.0 | 0.00 | 0.00 | 0.00 | 39 | 1010.3 |
| 20260504180005 | 78 | 247 | 16.0 | 22.0 | 0.00 | 0.00 | 0.00 | 39 | 1010.2 |
| 20260504175502 | 78 | 253 | 15.0 | 31.0 | 0.00 | 0.00 | 0.00 | 38 | 1010.1 |
| 20260504174959 | 78 | 239 | 11.0 | 26.0 | 0.00 | 0.00 | 0.00 | 40 | 1010.1 |
| 20260504174456 | 78 | 251 | 12.0 | 22.0 | 0.00 | 0.00 | 0.00 | 38 | 1010.4 |
| 20260504173954 | 78 | 216 | 16.0 | 21.0 | 0.00 | 0.00 | 0.00 | 37 | 1010.4 |
| 20260504173450 | 78 | 233 | 13.0 | 28.0 | 0.00 | 0.00 | 0.00 | 38 | 1010.5 |
| 20260504172947 | 78 | 225 | 24.0 | 30.0 | 0.00 | 0.00 | 0.00 | 38 | 1010.6 |
| 20260504172443 | 78 | 247 | 12.0 | 23.0 | 0.00 | 0.00 | 0.00 | 38 | 1010.4 |
| 20260504171940 | 77 | 256 | 6.0 | 25.0 | 0.00 | 0.00 | 0.00 | 38 | 1010.4 |
| 20260504171437 | 78 | 242 | 21.0 | 24.0 | 0.00 | 0.00 | 0.00 | 39 | 1010.5 |
| 20260504170934 | 78 | 242 | 11.0 | 37.0 | 0.00 | 0.00 | 0.00 | 39 | 1010.4 |
| 20260504170430 | 78 | 247 | 7.0 | 25.0 | 0.00 | 0.00 | 0.00 | 39 | 1010.4 |
| 20260504160349 | 77 | 258 | 9.0 | 22.0 | 0.00 | 0.00 | 0.00 | 40 | 1011.1 |
| 20260504150814 | 73 | 251 | 9.0 | 20.0 | 0.00 | 0.00 | 0.00 | 52 | 1011.7 |
| 20260504150311 | 73 | 240 | 13.0 | 16.0 | 0.00 | 0.00 | 0.00 | 52 | 1011.5 |
| 20260504141241 | 69 | 236 | 7.0 | 15.0 | 0.00 | 0.00 | 0.00 | 62 | 1012.2 |
| 20260504140737 | 69 | 233 | 9.0 | 16.0 | 0.00 | 0.00 | 0.00 | 63 | 1012.1 |
| 20260504140233 | 68 | 254 | 4.0 | 9.0 | 0.00 | 0.00 | 0.00 | 65 | 1012.1 |
| 20260504130702 | 64 | 255 | 6.0 | 14.0 | 0.00 | 0.00 | 0.00 | 73 | 1012.3 |
| 20260504130157 | 63 | 239 | 7.0 | 12.0 | 0.00 | 0.00 | 0.00 | 74 | 1012.0 |
| 20260504120122 | 59 | 242 | 3.0 | 6.0 | 0.00 | 0.00 | 0.00 | 79 | 1012.1 |
| 20260504110549 | 60 | 243 | 3.0 | 8.0 | 0.00 | 0.00 | 0.00 | 76 | 1011.5 |
| 20260504100511 | 61 | 259 | 2.0 | 9.0 | 0.00 | 0.00 | 0.00 | 73 | 1011.5 |
| 20260504081904 | 62 | 224 | 7.0 | 15.0 | 0.00 | 0.00 | 0.00 | 67 | 1011.5 |
| 20260504081401 | 62 | 236 | 8.0 | 13.0 | 0.00 | 0.00 | 0.00 | 67 | 1011.4 |
| 20260504080856 | 62 | 233 | 6.0 | 15.0 | 0.00 | 0.00 | 0.00 | 66 | 1011.6 |
| 20260504080354 | 62 | 261 | 5.0 | 9.0 | 0.00 | 0.00 | 0.00 | 67 | 1011.5 |
| 20260504070321 | 64 | 253 | 13.0 | 13.0 | 0.00 | 0.00 | 0.00 | 64 | 1012.3 |
| 20260504060241 | 64 | 242 | 8.0 | 12.0 | 0.00 | 0.00 | 0.00 | 63 | 1013.0 |
| 20260504050710 | 64 | 244 | 6.0 | 9.0 | 0.00 | 0.00 | 0.00 | 64 | 1013.2 |
| 20260504050206 | 64 | 257 | 7.0 | 7.0 | 0.00 | 0.00 | 0.00 | 63 | 1013.2 |
| 20260504045704 | 64 | 233 | 4.0 | 7.0 | 0.00 | 0.00 | 0.00 | 64 | 1013.4 |
| 20260504045204 | 64 | 237 | 5.0 | 13.0 | 0.00 | 0.00 | 0.00 | 64 | 1013.5 |
| 20260504044702 | 64 | 245 | 5.0 | 10.0 | 0.00 | 0.00 | 0.00 | 64 | 1013.5 |
| 20260504044159 | 64 | 240 | 5.0 | 8.0 | 0.00 | 0.00 | 0.00 | 64 | 1013.6 |
| 20260504043656 | 64 | 216 | 3.0 | 10.0 | 0.00 | 0.00 | 0.00 | 63 | 1013.5 |
| 20260504043153 | 64 | 293 | 3.0 | 8.0 | 0.00 | 0.00 | 0.00 | 63 | 1013.4 |
| 20260504042650 | 64 | 253 | 5.0 | 13.0 | 0.00 | 0.00 | 0.00 | 63 | 1013.3 |
| 20260504042147 | 64 | 229 | 5.0 | 9.0 | 0.00 | 0.00 | 0.00 | 63 | 1013.7 |
| 20260504041643 | 65 | 241 | 2.0 | 12.0 | 0.00 | 0.00 | 0.00 | 62 | 1013.4 |
| 20260504041138 | 65 | 245 | 4.0 | 9.0 | 0.00 | 0.00 | 0.00 | 62 | 1013.5 |
| 20260504040636 | 65 | 249 | 3.0 | 10.0 | 0.00 | 0.00 | 0.00 | 62 | 1013.5 |
| 20260504040133 | 64 | 242 | 4.0 | 8.0 | 0.00 | 0.00 | 0.00 | 62 | 1013.6 |
| 20260504035629 | 65 | 251 | 4.0 | 7.0 | 0.00 | 0.00 | 0.00 | 62 | 1013.6 |
| 20260504035126 | 64 | 239 | 5.0 | 9.0 | 0.00 | 0.00 | 0.00 | 63 | 1013.7 |
| 20260504034624 | 64 | 230 | 2.0 | 7.0 | 0.00 | 0.00 | 0.00 | 63 | 1013.5 |
| 20260504034121 | 64 | 208 | 2.0 | 5.0 | 0.00 | 0.00 | 0.00 | 64 | 1013.6 |
| 20260504033619 | 64 | 266 | 3.0 | 6.0 | 0.00 | 0.00 | 0.00 | 64 | 1013.7 |
| 20260504033116 | 64 | 249 | 3.0 | 7.0 | 0.00 | 0.00 | 0.00 | 64 | 1013.6 |
| 20260504032612 | 64 | 238 | 0.0 | 5.0 | 0.00 | 0.00 | 0.00 | 63 | 1013.6 |
| 20260504032109 | 65 | 229 | 3.0 | 6.0 | 0.00 | 0.00 | 0.00 | 63 | 1013.7 |
| 20260504031607 | 64 | 185 | 0.0 | 7.0 | 0.00 | 0.00 | 0.00 | 64 | 1013.6 |
| 20260504031103 | 64 | 237 | 9.0 | 9.0 | 0.00 | 0.00 | 0.00 | 63 | 1013.8 |
| 20260504030600 | 64 | 234 | 2.0 | 6.0 | 0.00 | 0.00 | 0.00 | 64 | 1013.7 |
| 20260504030056 | 64 | 241 | 3.0 | 5.0 | 0.00 | 0.00 | 0.00 | 64 | 1013.8 |
| 20260504025553 | 64 | 239 | 3.0 | 6.0 | 0.00 | 0.00 | 0.00 | 64 | 1013.9 |
| 20260504025050 | 64 | 238 | 2.0 | 6.0 | 0.00 | 0.00 | 0.00 | 64 | 1013.8 |
| 20260504024547 | 64 | 252 | 3.0 | 7.0 | 0.00 | 0.00 | 0.00 | 64 | 1013.9 |
| 20260504024044 | 65 | 204 | 2.0 | 7.0 | 0.00 | 0.00 | 0.00 | 64 | 1013.7 |
| 20260504023540 | 65 | 229 | 3.0 | 6.0 | 0.00 | 0.00 | 0.00 | 64 | 1013.6 |
| 20260504023036 | 65 | 241 | 2.0 | 8.0 | 0.00 | 0.00 | 0.00 | 63 | 1013.6 |
| 20260504022532 | 65 | 246 | 3.0 | 9.0 | 0.00 | 0.00 | 0.00 | 62 | 1013.9 |
| 20260504022029 | 65 | 247 | 4.0 | 7.0 | 0.00 | 0.00 | 0.00 | 62 | 1013.6 |
| 20260504021526 | 65 | 235 | 4.0 | 8.0 | 0.00 | 0.00 | 0.00 | 61 | 1013.6 |
| 20260504021023 | 66 | 231 | 4.0 | 7.0 | 0.00 | 0.00 | 0.00 | 60 | 1013.5 |
| 20260504020520 | 66 | 238 | 5.0 | 9.0 | 0.00 | 0.00 | 0.00 | 60 | 1013.6 |
| 20260504020017 | 66 | 243 | 4.0 | 7.0 | 0.00 | 0.00 | 0.00 | 59 | 1013.4 |
| 20260504015513 | 66 | 222 | 3.0 | 9.0 | 0.00 | 0.00 | 0.00 | 58 | 1013.6 |
| 20260504015009 | 66 | 269 | 3.0 | 7.0 | 0.00 | 0.00 | 0.00 | 58 | 1013.5 |
| 20260504014505 | 66 | 249 | 4.0 | 6.0 | 0.00 | 0.00 | 0.00 | 57 | 1013.3 |
| 20260504014003 | 67 | 246 | 3.0 | 7.0 | 0.00 | 0.00 | 0.00 | 57 | 1013.4 |
| 20260504013501 | 67 | 210 | 3.0 | 9.0 | 0.00 | 0.00 | 0.00 | 56 | 1013.3 |
| 20260504012956 | 67 | 238 | 5.0 | 7.0 | 0.00 | 0.00 | 0.00 | 55 | 1013.4 |
| 20260504012454 | 67 | 253 | 6.0 | 8.0 | 0.00 | 0.00 | 0.00 | 54 | 1013.4 |
| 20260504011952 | 68 | 245 | 6.0 | 12.0 | 0.00 | 0.00 | 0.00 | 54 | 1013.4 |
| 20260504011448 | 68 | 217 | 2.0 | 8.0 | 0.00 | 0.00 | 0.00 | 53 | 1013.5 |
| 20260504010944 | 68 | 241 | 5.0 | 8.0 | 0.00 | 0.00 | 0.00 | 52 | 1013.3 |
| 20260504010440 | 68 | 260 | 7.0 | 9.0 | 0.00 | 0.00 | 0.00 | 51 | 1013.3 |
| 20260504005936 | 68 | 267 | 5.0 | 11.0 | 0.00 | 0.00 | 0.00 | 51 | 1013.2 |
| 20260504005433 | 69 | 256 | 5.0 | 9.0 | 0.00 | 0.00 | 0.00 | 50 | 1013.5 |
| 20260504004931 | 69 | 239 | 4.0 | 6.0 | 0.00 | 0.00 | 0.00 | 50 | 1013.4 |
| 20260504004428 | 69 | 229 | 5.0 | 8.0 | 0.00 | 0.00 | 0.00 | 49 | 1013.3 |
| 20260504003925 | 69 | 245 | 5.0 | 7.0 | 0.00 | 0.00 | 0.00 | 49 | 1013.3 |
| 20260504003421 | 69 | 246 | 6.0 | 10.0 | 0.00 | 0.00 | 0.00 | 49 | 1013.5 |
| 20260504002918 | 70 | 227 | 5.0 | 10.0 | 0.00 | 0.00 | 0.00 | 47 | 1013.3 |
| 20260504002415 | 70 | 269 | 6.0 | 14.0 | 0.00 | 0.00 | 0.00 | 46 | 1013.7 |
| 20260504001913 | 71 | 248 | 6.0 | 16.0 | 0.00 | 0.00 | 0.00 | 45 | 1013.8 |
| 20260504001410 | 71 | 255 | 6.0 | 8.0 | 0.00 | 0.00 | 0.00 | 45 | 1013.4 |
| 20260504000906 | 71 | 231 | 5.0 | 15.0 | 0.00 | 0.00 | 0.00 | 44 | 1013.6 |
| 20260504000404 | 71 | 247 | 6.0 | 12.0 | 0.00 | 0.00 | 0.00 | 44 | 1013.7 |
| 20260503235901 | 71 | 247 | 4.0 | 13.0 | 0.00 | 0.00 | 0.00 | 44 | 1013.5 |
| 20260503235359 | 72 | 248 | 11.0 | 16.0 | 0.00 | 0.00 | 0.00 | 43 | 1014.0 |
| 20260503234856 | 72 | 247 | 8.0 | 11.0 | 0.00 | 0.00 | 0.00 | 42 | 1013.8 |
| 20260503234354 | 72 | 238 | 15.0 | 22.0 | 0.00 | 0.00 | 0.00 | 41 | 1013.7 |
| 20260503233851 | 72 | 233 | 8.0 | 16.0 | 0.00 | 0.00 | 0.00 | 41 | 1013.8 |
| 20260503233347 | 72 | 246 | 6.0 | 19.0 | 0.00 | 0.00 | 0.00 | 41 | 1013.7 |
| 20260503232844 | 73 | 215 | 17.0 | 17.0 | 0.00 | 0.00 | 0.00 | 40 | 1013.8 |
| 20260503232341 | 73 | 235 | 5.0 | 17.0 | 0.00 | 0.00 | 0.00 | 41 | 1014.2 |
| 20260503231839 | 73 | 255 | 5.0 | 12.0 | 0.00 | 0.00 | 0.00 | 40 | 1014.4 |
| 20260503231336 | 73 | 253 | 4.0 | 13.0 | 0.00 | 0.00 | 0.00 | 40 | 1014.7 |
| 20260503230832 | 73 | 237 | 9.0 | 16.0 | 0.00 | 0.00 | 0.00 | 39 | 1014.4 |
| 20260503230329 | 73 | 254 | 6.0 | 14.0 | 0.00 | 0.00 | 0.00 | 39 | 1014.4 |
| 20260503225827 | 73 | 258 | 8.0 | 11.0 | 0.00 | 0.00 | 0.00 | 39 | 1014.4 |
| 20260503225322 | 73 | 260 | 6.0 | 13.0 | 0.00 | 0.00 | 0.00 | 37 | 1014.4 |
| 20260503224818 | 73 | 241 | 8.0 | 17.0 | 0.00 | 0.00 | 0.00 | 37 | 1014.7 |
| 20260503224316 | 73 | 262 | 6.0 | 15.0 | 0.00 | 0.00 | 0.00 | 38 | 1014.4 |
| 20260503223814 | 73 | 240 | 6.0 | 13.0 | 0.00 | 0.00 | 0.00 | 36 | 1014.7 |
| 20260503223311 | 73 | 231 | 9.0 | 20.0 | 0.00 | 0.00 | 0.00 | 36 | 1014.6 |
| 20260503222807 | 73 | 239 | 6.0 | 16.0 | 0.00 | 0.00 | 0.00 | 36 | 1014.6 |
| 20260503222306 | 73 | 233 | 10.0 | 16.0 | 0.00 | 0.00 | 0.00 | 35 | 1014.8 |
| 20260503221803 | 73 | 239 | 13.0 | 13.0 | 0.00 | 0.00 | 0.00 | 34 | 1014.7 |
| 20260503221301 | 73 | 245 | 8.0 | 15.0 | 0.00 | 0.00 | 0.00 | 35 | 1014.8 |